CW1459 Weather Reports


time (UTC)temp
C
wind
direction
speed
KPH
gust
KPH
rain 1hr
cm
rain 24hr
cm
rain mn
cm
humidity
%
barometer
mb
20260906064316 15 96 0.0 3.2 0.00 0.00 0.00 92 1012.0
20260906063319 16 96 1.6 3.2 0.00 0.00 0.00 91 1011.8
20260906062322 16 96 0.0 1.6 0.00 0.00 0.00 91 1011.9
20260906061315 16 96 1.6 3.2 0.00 0.00 0.00 91 1011.9
20260906060318 16 96 1.6 3.2 0.00 0.00 0.00 90 1012.0
20260906055333 16 96 3.2 3.2 0.00 0.00 0.00 90 1012.1
20260906054316 16 42 0.0 3.2 0.00 0.00 0.00 90 1012.1
20260906053317 17 42 1.6 3.2 0.00 0.00 0.00 89 1012.0
20260906052341 17 87 1.6 3.2 0.00 0.00 0.00 89 1012.0
20260906051337 17 87 1.6 4.8 0.00 0.00 0.00 89 1012.0
20260906050318 17 17 1.6 4.8 0.00 0.00 0.00 88 1012.0
20260906045352 17 306 1.6 3.2 0.00 0.00 0.00 88 1012.1
20260906044339 17 306 0.0 1.6 0.00 0.00 0.00 88 1012.2
20260906043315 17 306 0.0 3.2 0.00 0.00 0.00 87 1012.3
20260906042341 17 306 0.0 3.2 0.00 0.00 0.00 87 1012.3
20260906041316 18 306 1.6 3.2 0.00 0.00 0.00 87 1012.2
20260906040338 18 306 1.6 3.2 0.00 0.00 0.00 87 1012.1
20260906035355 18 306 0.0 3.2 0.00 0.00 0.00 86 1012.2
20260906034342 18 306 0.0 3.2 0.00 0.00 0.00 85 1012.3
20260906033341 18 306 0.0 1.6 0.00 0.00 0.00 85 1012.3
20260906032340 18 306 0.0 3.2 0.00 0.00 0.00 83 1012.2
20260906031338 19 306 0.0 4.8 0.00 0.00 0.00 82 1012.1
20260906030322 20 117 1.6 4.8 0.00 0.00 0.00 81 1012.1
20260906025317 20 28 0.0 3.2 0.00 0.00 0.00 79 1012.0
20260906024339 20 28 1.6 4.8 0.00 0.00 0.00 79 1011.9
20260906023341 20 28 3.2 4.8 0.00 0.00 0.00 77 1011.9
20260906022335 21 70 1.6 4.8 0.00 0.00 0.00 76 1011.8
20260906021336 21 24 1.6 3.2 0.00 0.00 0.00 74 1011.7
20260906020318 22 44 1.6 9.7 0.00 0.00 0.00 71 1011.7
20260906015354 22 112 6.4 16.1 0.00 0.00 0.00 71 1011.6
20260906014316 22 136 4.8 11.3 0.00 0.00 0.00 72 1011.5
20260906013316 22 123 3.2 11.3 0.00 0.00 0.00 72 1011.4
20260906012339 22 98 3.2 11.3 0.00 0.00 0.00 73 1011.3
20260906011332 22 136 4.8 14.5 0.00 0.00 0.00 74 1011.3
20260906010315 22 120 4.8 11.3 0.00 0.00 0.00 75 1011.2
20260906005330 22 128 3.2 9.7 0.00 0.00 0.00 76 1011.0
20260906004400 22 130 3.2 6.4 0.00 0.00 0.00 77 1011.0
20260906003337 21 103 3.2 6.4 0.00 0.00 0.00 78 1011.0
20260906002331 22 22 1.6 4.8 0.00 0.00 0.00 78 1010.9
20260906001400 22 49 1.6 4.8 0.00 0.00 0.00 76 1010.7
20260906000340 22 122 1.6 4.8 0.00 0.00 0.00 74 1010.6
20260905235319 22 96 1.6 6.4 0.00 0.00 0.00 74 1010.5
20260905234331 23 85 1.6 4.8 0.00 0.00 0.00 73 1010.4
20260905233335 23 113 1.6 4.8 0.00 0.00 0.00 73 1010.5
20260905232337 23 93 1.6 4.8 0.00 0.00 0.00 73 1010.4
20260905231315 25 89 1.6 3.2 0.00 0.00 0.00 71 1010.4
20260905230337 25 351 0.0 3.2 0.00 0.00 0.00 67 1010.3
20260905225319 25 26 3.2 4.8 0.00 0.00 0.00 66 1010.1
20260905224331 25 15 1.6 3.2 0.00 0.00 0.00 69 1010.0
20260905223338 25 46 0.0 4.8 0.00 0.00 0.00 69 1010.0
20260905222338 25 22 4.8 12.9 0.00 0.00 0.00 66 1009.9
20260905221317 26 16 4.8 12.9 0.00 0.00 0.00 63 1009.7
20260905220339 27 351 6.4 16.1 0.00 0.00 0.00 63 1009.7
20260905215313 27 333 6.4 16.1 0.00 0.00 0.00 63 1009.5
20260905214318 27 360 8.0 19.3 0.00 0.00 0.00 63 1009.5
20260905213326 27 9 6.4 12.9 0.00 0.00 0.00 63 1009.5
20260905212335 27 329 6.4 16.1 0.00 0.00 0.00 62 1009.4
20260905211318 27 333 4.8 17.7 0.00 0.00 0.00 64 1009.3
20260905210320 27 360 6.4 12.9 0.00 0.00 0.00 65 1009.3
20260905205331 27 351 6.4 12.9 0.00 0.00 0.00 63 1009.4
20260905204317 27 325 8.0 14.5 0.00 0.00 0.00 64 1009.4
20260905203318 27 298 3.2 12.9 0.00 0.00 0.00 62 1009.5
20260905202317 27 346 8.0 12.9 0.00 0.00 0.00 65 1009.6
20260905201336 27 342 4.8 12.9 0.00 0.00 0.00 65 1009.6
20260905200337 27 30 4.8 16.1 0.00 0.00 0.00 62 1009.7
20260905195337 27 10 6.4 9.7 0.00 0.00 0.00 64 1009.6
20260905194314 26 328 4.8 9.7 0.00 0.00 0.00 65 1009.7
20260905193314 27 317 4.8 11.3 0.00 0.00 0.00 64 1009.9
20260905192313 27 339 6.4 12.9 0.00 0.00 0.00 62 1010.0
20260905191337 27 24 6.4 16.1 0.00 0.00 0.00 60 1010.1
20260905190340 28 329 3.2 14.5 0.00 0.00 0.00 64 1010.1
20260905185318 28 44 3.2 22.5 0.00 0.00 0.00 67 1010.0
20260905184358 28 343 8.0 17.7 0.00 0.00 0.00 64 1010.1
20260905183315 28 350 8.0 12.9 0.00 0.00 0.00 64 1010.3
20260905182401 27 338 3.2 16.1 0.00 0.00 0.00 63 1010.3
20260905181332 27 14 9.7 16.1 0.00 0.00 0.00 68 1010.5
20260905180334 27 313 3.2 14.5 0.00 0.00 0.00 70 1010.5
20260905175316 27 25 3.2 8.0 0.00 0.00 0.00 71 1010.5
20260905174332 27 82 1.6 12.9 0.00 0.00 0.00 69 1010.7
20260905173313 26 323 6.4 9.7 0.00 0.00 0.00 73 1010.8
20260905172331 26 337 4.8 12.9 0.00 0.00 0.00 74 1010.9
20260905171332 26 349 4.8 12.9 0.00 0.00 0.00 74 1011.0
20260905170336 26 329 1.6 9.7 0.00 0.00 0.00 71 1011.0
20260905165315 26 5 3.2 16.1 0.00 0.00 0.00 73 1011.1
20260905164318 26 344 4.8 9.7 0.00 0.00 0.00 74 1011.2
20260905163400 26 350 4.8 9.7 0.00 0.00 0.00 75 1011.2
20260905162331 25 15 6.4 9.7 0.00 0.00 0.00 74 1011.3
20260905161314 25 5 6.4 14.5 0.00 0.00 0.00 76 1011.3
20260905160357 26 309 4.8 12.9 0.00 0.00 0.00 75 1011.5
20260905155338 26 5 4.8 12.9 0.00 0.00 0.00 76 1011.5
20260905154338 25 294 3.2 8.0 0.00 0.00 0.00 75 1011.6
20260905153334 25 326 1.6 6.4 0.00 0.00 0.00 75 1011.7
20260905152312 25 349 3.2 6.4 0.00 0.00 0.00 79 1011.8
20260905151339 25 5 3.2 6.4 0.00 0.00 0.00 79 1011.9
20260905150315 25 347 4.8 8.0 0.00 0.00 0.00 81 1012.0
20260905145319 24 323 3.2 8.0 0.00 0.00 0.00 82 1012.1
20260905144334 24 345 3.2 6.4 0.00 0.00 0.00 85 1011.9
20260905143314 24 351 0.0 4.8 0.00 0.00 0.00 84 1011.8
20260905142319 24 336 0.0 4.8 0.00 0.00 0.00 86 1011.8
20260905141326 23 36 1.6 4.8 0.00 0.00 0.00 87 1011.7
20260905140321 23 313 1.6 4.8 0.00 0.00 0.00 87 1011.6
20260905135332 23 309 4.8 6.4 0.00 0.00 0.00 88 1011.4
20260905134313 23 328 3.2 6.4 0.00 0.00 0.00 89 1011.1
20260905133336 23 314 3.2 6.4 0.00 0.00 0.00 90 1011.1
20260905132313 23 233 0.0 3.2 0.00 0.00 0.00 92 1011.1
20260905131316 22 233 1.6 3.2 0.00 0.00 0.00 94 1011.3
20260905130313 22 233 1.6 4.8 0.00 0.00 0.00 94 1011.3
20260905125313 22 223 1.6 4.8 0.00 0.00 0.00 95 1011.2
20260905124314 22 237 1.6 3.2 0.00 0.00 0.00 95 1011.2
20260905123333 22 237 1.6 4.8 0.00 0.00 0.00 96 1011.0
20260905122339 22 181 1.6 3.2 0.00 0.00 0.00 96 1011.0
20260905121337 21 202 0.0 4.8 0.00 0.00 0.00 96 1010.9
20260905120337 21 212 1.6 6.4 0.00 0.00 0.00 96 1011.0
20260905115341 21 156 1.6 3.2 0.00 0.00 0.00 96 1010.9
20260905114313 21 156 0.0 1.6 0.00 0.00 0.00 96 1010.8
20260905113336 21 156 0.0 1.6 0.00 0.00 0.00 96 1010.9
20260905112357 21 156 0.0 0.0 0.00 0.00 0.00 96 1010.8
20260905111315 21 156 0.0 3.2 0.00 0.00 0.00 96 1010.7
20260905110327 21 156 1.6 3.2 0.00 0.00 0.00 96 1010.6
20260905105336 21 156 0.0 1.6 0.00 0.00 0.00 96 1010.7
20260905104332 21 156 0.0 0.0 0.00 0.00 0.00 96 1010.4
20260905103313 21 156 0.0 1.6 0.00 0.00 0.00 96 1010.2
20260905102312 21 156 0.0 3.2 0.00 0.00 0.00 96 1010.2
20260905101336 21 156 0.0 1.6 0.00 0.00 0.00 95 1010.2
20260905100347 21 156 0.0 3.2 0.00 0.00 0.00 95 1010.2
20260905095332 21 156 1.6 3.2 0.00 0.00 0.00 95 1010.0
20260905094320 21 156 1.6 3.2 0.00 0.00 0.00 95 1010.1
20260905093328 21 156 0.0 0.0 0.00 0.00 0.00 95 1010.1
20260905092337 21 156 0.0 1.6 0.00 0.00 0.00 95 1010.0
20260905091316 21 156 0.0 3.2 0.00 0.00 0.00 95 1010.0
20260905090339 21 156 1.6 3.2 0.00 0.00 0.00 95 1010.0
20260905085316 20 156 0.0 1.6 0.00 0.00 0.00 95 1010.1
20260905084317 20 156 1.6 3.2 0.00 0.00 0.00 95 1010.0
20260905083343 20 156 0.0 1.6 0.00 0.00 0.00 95 1010.1
20260905082336 20 156 0.0 1.6 0.00 0.00 0.00 95 1010.0
20260905081340 21 156 1.6 3.2 0.00 0.00 0.00 95 1010.1
20260905080356 21 156 0.0 1.6 0.00 0.00 0.00 95 1010.1
20260905075316 21 156 1.6 3.2 0.00 0.00 0.00 95 1010.1
20260905074339 21 156 1.6 3.2 0.00 0.00 0.00 95 1010.2
20260905073319 21 156 0.0 3.2 0.00 0.00 0.00 95 1010.3
20260905072341 21 156 1.6 3.2 0.00 0.00 0.00 95 1010.3
20260905071338 21 156 0.0 3.2 0.00 0.00 0.00 95 1010.3
20260905070315 21 156 0.0 1.6 0.00 0.00 0.00 95 1010.5
20260905065341 21 156 1.6 3.2 0.00 0.03 0.00 95 1010.6